Regional Weather Roundup
Issued by NWS

Home | Current Version | Previous Version | Text Only | Print | Product List | Glossary Off
Versions: 1 2 3 4 5 6 7 8 9 10 11 12 13 14 15 16 17 18 19 20 21 22 23 24 25 26 27 28 29 30 31 32 33 34 35 36 37 38 39 40 41 42 43 44 45 46 47 48 49 50

501
ASUS43 KOAX 291002
RWRNE

WEATHER ROUNDUP FOR NEBRASKA
NATIONAL WEATHER SERVICE OMAHA NE
500 AM CDT THU SEP 29 2016

NOTES: SATELLITE DATA IS BEING USED TO AUGMENT CLOUD COVER ABOVE
       12000 FEET.
       "FAIR" INDICATES FEW OR NO CLOUDS BELOW 12,000 FEET WITH NO
       SIGNIFICANT WEATHER AND/OR OBSTRUCTIONS TO VISIBILITY.

  * THESE STATIONS DO NOT REPORT WEATHER SUCH AS RAIN...SNOW OR FOG.

NEZ001>004-019>022-054>056-291100-
NEBRASKA PANHANDLE

CITY           SKY/WX    TMP DP  RH WIND       PRES   REMARKS
SCOTTSBLUFF    CLEAR     48  39  71 E10       30.35S
ALLIANCE       CLEAR     43  35  73 SE5       30.36S
CHADRON        CLEAR     57  33  40 S9        30.32F
KIMBALL        CLEAR     46  41  81 S7        30.38S
SIDNEY         CLEAR     48  39  71 S9        30.38F
$$

NEZ057>060-069>072-079>082-291100-
SOUTHWEST NEBRASKA

CITY           SKY/WX    TMP DP  RH WIND       PRES   REMARKS
NORTH PLATTE   CLOUDY    38  36  92 CALM      30.41R
IMPERIAL       CLOUDY    43  36  76 SE3       30.39R
LEXINGTON      CLEAR     39  37  91 NW3       30.41S
MCCOOK         CLOUDY    41  36  82 NE3       30.40R
OGALLALA       CLOUDY    43  36  77 CALM      30.38S
$$

NEZ005>010-023>029-035>040-094-291100-
NORTH CENTRAL NEBRASKA

CITY           SKY/WX    TMP DP  RH WIND       PRES   REMARKS
VALENTINE      CLEAR     41  38  89 CALM      30.40R
AINSWORTH      CLOUDY    37  36  99 S6        30.40S WCI  32
BROKEN BOW     CLOUDY    35  34  96 CALM      30.41R
O`NEILL        CLOUDY    41  40  95 CALM      30.41S FOG
ORD            CLOUDY    36  33  89 CALM      30.40R
THEDFORD       CLOUDY    38  36  94 CALM      30.41S
$$

NEZ041-046>049-061>064-073>077-083>087-291100-
SOUTH CENTRAL NEBRASKA

CITY           SKY/WX    TMP DP  RH WIND       PRES   REMARKS
GRAND ISLAND   CLEAR     40  37  89 NW3       30.40R
AURORA         CLOUDY    41  40  98 N3        30.40R
HASTINGS       CLOUDY    42  38  85 CALM      30.40R
HEBRON         CLOUDY    43  42  95 CALM      30.39R
HOLDREGE       CLOUDY    38  37  93 CALM      30.40S
KEARNEY *      CLOUDY    41  36  81 NW6       30.41R
YORK           CLOUDY    41  41 100 CALM      30.40R
$$

NEZ011>018-030>034-042>045-291100-
NORTHEAST NEBRASKA

CITY           SKY/WX    TMP DP  RH WIND       PRES   REMARKS
NORFOLK        CLOUDY    39  37  92 W3        30.40S
ALBION         CLOUDY    38  37  96 CALM      30.41R
BLAIR          CLEAR     48  46  91 N8        30.37S
FREMONT        CLEAR     44  43  96 CALM      30.39S
TEKAMAH        CLEAR     44  42  93 N3        30.39R
WAYNE          CLOUDY    37  37  97 CALM      30.41S
$$

NEZ050>053-065>068-078-088>093-291100-
SOUTHEAST NEBRASKA

CITY           SKY/WX    TMP DP  RH WIND       PRES   REMARKS
LINCOLN        CLEAR     44  42  93 N5        30.40R
OMAHA EPPLEY   CLEAR     47  43  86 N7        30.37S
BEATRICE       CLEAR     47  45  93 N6        30.37S
FALLS CITY     CLEAR     47  46  97 NW5       30.34R
NEBRASKA CITY  CLEAR     48  47  93 N6        30.36R
PLATTSMOUTH    CLEAR     46  43  89 W3        30.37R
$$

NEZ044-045-051>053-067-291100-
OMAHA AREA

CITY           SKY/WX    TMP DP  RH WIND       PRES   REMARKS
OMAHA EPPLEY   CLEAR     47  43  86 N7        30.37S
BLAIR          CLEAR     48  46  91 N8        30.37S
FREMONT        CLEAR     44  43  96 CALM      30.39S
MILLARD        CLEAR     48  45  90 NW5       30.38R
PLATTSMOUTH    CLEAR     46  43  89 W3        30.37R
WAHOO          FAIR      45  43  94 N7        30.39R
$$




USA.gov is the U.S. government's official web portal to all federal, state and local government web resources and services.